Ely, MN

5:20 PM CDT on August 31, 2016 (GMT -0500)
Ely Municipal

Weather History for KELO - April, 2013

Change the Weather History Date:

Tuesday, April 9, 2013

  Actual Average Record
Temperature  
Mean Temperature 32 °F -  
Max Temperature 37 °F 43 °F 68 °F (2005)
Min Temperature 26 °F 23 °F -2 °F (2016)
Degree Days  
Heating Degree Days 34    
Moisture  
Dew Point 19 °F    
Average Humidity 62    
Maximum Humidity 93    
Minimum Humidity 36    
Precipitation  
Precipitation 0.00 in - - ()
Sea Level Pressure  
Sea Level Pressure 30.15 in    
Wind  
Wind Speed 4 mph (North)    
Max Wind Speed 10 mph    
Max Gust Speed 17 mph    
Visibility 10 miles    
Events      
Averages and records for this station are not official NWS values.
T = Trace of Precipitation, MM = Missing Value Source: NWS Daily Summary

Daily Weather History Graph

Daily Weather History Graph

Search for Another Location

Airport or City:

Trip Planner

Search our weather history database for the weather conditions in past years. The results will help you decide how hot, cold, wet, or windy it might be!

Date:

Astronomy

Apr. 09, 2013 Rise Set
Actual Time 6:29 AM CDT 7:49 PM CDT
Civil Twilight 5:57 AM CDT 8:21 PM CDT
Nautical Twilight 5:18 AM CDT 9:00 PM CDT
Astronomical Twilight 4:37 AM CDT 9:41 PM CDT
Moon 5:54 AM CDT (4/9) 7:25 PM CDT (4/9)
Length of Visible Light 14h 23m
Length of Day
13h 19m
Waning Crescent, 1% of the Moon is Illuminated
Apr 9
Waning Crescent
Apr 10
New
Apr 18
First Quarter
Apr 25
Full
May 2
Last Quarter

Hourly Weather History & Observations

Time (CDT) Temp. Windchill Dew Point Humidity Pressure Visibility Wind Dir Wind Speed Gust Speed Precip Events Conditions
12:13 AM 33.8 °F - 30.2 °F 87% 30.05 in 10.0 mi Calm Calm - N/A   Overcast
12:32 AM 33.8 °F - 30.2 °F 87% 30.05 in 10.0 mi Calm Calm - N/A   Overcast
12:53 AM 33.8 °F - 30.2 °F 87% 30.06 in 10.0 mi Calm Calm - N/A   Overcast
1:12 AM 33.8 °F - 30.2 °F 87% 30.07 in 10.0 mi Calm Calm - N/A   Overcast
1:33 AM 32.0 °F - 30.2 °F 93% 30.07 in 10.0 mi Calm Calm - N/A   Overcast
1:53 AM 32.0 °F - 30.2 °F 93% 30.08 in 10.0 mi Calm Calm - N/A   Overcast
2:13 AM 32.0 °F - 30.2 °F 93% 30.07 in 10.0 mi Calm Calm - N/A   Overcast
2:33 AM 32.0 °F 26.4 °F 28.4 °F 87% 30.06 in 10.0 mi NNW 5.8 mph - N/A   Overcast
2:53 AM 32.0 °F 26.4 °F 28.4 °F 87% 30.04 in 10.0 mi NNW 5.8 mph - N/A   Overcast
3:13 AM 30.2 °F 24.3 °F 26.6 °F 86% 30.03 in 10.0 mi NNW 5.8 mph - N/A   Mostly Cloudy
3:33 AM 30.2 °F 26.7 °F 24.8 °F 80% 30.08 in 10.0 mi West 3.5 mph - N/A   Mostly Cloudy
3:53 AM 30.2 °F 26.7 °F 23.0 °F 75% 30.09 in 10.0 mi WNW 3.5 mph - N/A   Scattered Clouds
4:13 AM 28.4 °F 21.2 °F 23.0 °F 80% 30.07 in 10.0 mi NW 6.9 mph - N/A   Clear
4:33 AM 28.4 °F 22.2 °F 21.2 °F 74% 30.07 in 10.0 mi NW 5.8 mph - N/A   Mostly Cloudy
4:53 AM 28.4 °F 20.4 °F 21.2 °F 74% 30.06 in 10.0 mi NW 8.1 mph - N/A   Mostly Cloudy
5:13 AM 28.4 °F 21.2 °F 21.2 °F 74% 30.06 in 10.0 mi NW 6.9 mph - N/A   Scattered Clouds
5:32 AM 26.6 °F 21.2 °F 21.2 °F 80% 30.10 in 10.0 mi West 4.6 mph - N/A   Scattered Clouds
5:53 AM 26.6 °F 20.0 °F 21.2 °F 80% 30.09 in 10.0 mi NW 5.8 mph - N/A   Mostly Cloudy
6:13 AM 26.6 °F 22.6 °F 21.2 °F 80% 30.10 in 10.0 mi NW 3.5 mph - N/A   Mostly Cloudy
6:32 AM 26.6 °F 21.2 °F 19.4 °F 74% 30.12 in 10.0 mi WNW 4.6 mph - N/A   Mostly Cloudy
6:53 AM 26.6 °F 19.1 °F 19.4 °F 74% 30.14 in 10.0 mi NNW 6.9 mph - N/A   Overcast
7:13 AM 26.6 °F 20.0 °F 19.4 °F 74% 30.14 in 10.0 mi NW 5.8 mph - N/A   Overcast
7:32 AM 26.6 °F 19.1 °F 19.4 °F 74% 30.14 in 10.0 mi NW 6.9 mph - N/A   Overcast
7:53 AM 26.6 °F 21.2 °F 19.4 °F 74% 30.15 in 10.0 mi NNW 4.6 mph - N/A   Overcast
8:13 AM 26.6 °F 17.5 °F 19.4 °F 74% 30.15 in 10.0 mi NW 9.2 mph - N/A   Overcast
8:32 AM 26.6 °F 17.5 °F 21.2 °F 80% 30.16 in 10.0 mi NW 9.2 mph - N/A   Mostly Cloudy
8:53 AM 28.4 °F 20.4 °F 21.2 °F 74% 30.16 in 10.0 mi NNW 8.1 mph - N/A   Overcast
9:12 AM 28.4 °F 22.2 °F 21.2 °F 74% 30.16 in 10.0 mi NNW 5.8 mph - N/A   Overcast
9:33 AM 28.4 °F 21.2 °F 21.2 °F 74% 30.16 in 10.0 mi North 6.9 mph - N/A   Overcast
9:53 AM 28.4 °F 21.2 °F 21.2 °F 74% 30.16 in 10.0 mi NNE 6.9 mph - N/A   Overcast
10:12 AM 30.2 °F 23.4 °F 21.2 °F 69% 30.16 in 10.0 mi NNE 6.9 mph - N/A   Overcast
10:33 AM 30.2 °F 21.9 °F 21.2 °F 69% 30.16 in 10.0 mi North 9.2 mph - N/A   Overcast
10:52 AM 30.2 °F 23.4 °F 21.2 °F 69% 30.15 in 10.0 mi North 6.9 mph - N/A   Overcast
11:13 AM 30.2 °F 23.4 °F 21.2 °F 69% 30.16 in 10.0 mi NNW 6.9 mph - N/A   Overcast
11:33 AM 32.0 °F 25.6 °F 21.2 °F 64% 30.17 in 10.0 mi NNE 6.9 mph - N/A   Overcast
11:52 AM 32.0 °F 27.5 °F 21.2 °F 64% 30.18 in 10.0 mi North 4.6 mph - N/A   Overcast
12:13 PM 32.0 °F 26.4 °F 21.2 °F 64% 30.18 in 10.0 mi North 5.8 mph 17.3 mph N/A   Overcast
12:33 PM 33.8 °F 28.6 °F 21.2 °F 60% 30.18 in 10.0 mi North 5.8 mph - N/A   Unknown
12:53 PM 33.8 °F 27.7 °F 19.4 °F 56% 30.18 in 10.0 mi NE 6.9 mph - N/A   Overcast
1:12 PM 35.6 °F 29.2 °F 19.4 °F 52% 30.19 in 10.0 mi NNE 8.1 mph - N/A   Overcast
1:33 PM 35.6 °F 31.7 °F 17.6 °F 48% 30.19 in 10.0 mi North 4.6 mph - N/A   Mostly Cloudy
1:53 PM 35.6 °F 29.9 °F 17.6 °F 48% 30.18 in 10.0 mi NNE 6.9 mph - N/A   Scattered Clouds
2:12 PM 35.6 °F 28.0 °F 17.6 °F 48% 30.18 in 10.0 mi NNE 10.4 mph 16.1 mph N/A   Scattered Clouds
2:33 PM 35.6 °F 30.7 °F 17.6 °F 48% 30.17 in 10.0 mi NNE 5.8 mph - N/A   Mostly Cloudy
2:53 PM 37.4 °F 32.1 °F 15.8 °F 41% 30.16 in 10.0 mi North 6.9 mph - N/A   Scattered Clouds
3:12 PM 37.4 °F 31.4 °F 15.8 °F 41% 30.16 in 10.0 mi ENE 8.1 mph 16.1 mph N/A   Clear
3:33 PM 37.4 °F 32.8 °F 15.8 °F 41% 30.17 in 10.0 mi North 5.8 mph - N/A   Clear
3:53 PM 37.4 °F 33.8 °F 14.0 °F 38% 30.17 in 10.0 mi North 4.6 mph - N/A   Clear
4:12 PM 37.4 °F 31.4 °F 15.8 °F 41% 30.17 in 10.0 mi NNE 8.1 mph - N/A   Clear
4:33 PM 37.4 °F 32.8 °F 14.0 °F 38% 30.17 in 10.0 mi NE 5.8 mph - N/A   Clear
4:53 PM 37.4 °F 30.8 °F 14.0 °F 38% 30.16 in 10.0 mi NE 9.2 mph - N/A   Clear
5:12 PM 37.4 °F 33.8 °F 14.0 °F 38% 30.15 in 10.0 mi North 4.6 mph - N/A   Clear
5:33 PM 37.4 °F 30.8 °F 12.2 °F 36% 30.15 in 10.0 mi NNE 9.2 mph - N/A   Clear
5:53 PM 37.4 °F 33.8 °F 12.2 °F 36% 30.16 in 10.0 mi NNE 4.6 mph - N/A   Clear
6:12 PM 37.4 °F 34.9 °F 12.2 °F 36% 30.18 in 10.0 mi North 3.5 mph - N/A   Clear
6:33 PM 37.4 °F 33.8 °F 12.2 °F 36% 30.19 in 10.0 mi North 4.6 mph - N/A   Clear
6:53 PM 35.6 °F 31.7 °F 12.2 °F 38% 30.21 in 10.0 mi North 4.6 mph - N/A   Clear
7:12 PM 35.6 °F 30.7 °F 12.2 °F 38% 30.20 in 10.0 mi North 5.8 mph - N/A   Clear
7:33 PM 35.6 °F 32.8 °F 12.2 °F 38% 30.20 in 10.0 mi North 3.5 mph - N/A   Clear
7:53 PM 33.8 °F 30.8 °F 12.2 °F 41% 30.19 in 10.0 mi North 3.5 mph - N/A   Clear
8:12 PM 33.8 °F 30.8 °F 14.0 °F 44% 30.19 in 10.0 mi North 3.5 mph - N/A   Clear
8:33 PM 32.0 °F - 15.8 °F 51% 30.19 in 10.0 mi Calm Calm - N/A   Clear
8:53 PM 30.2 °F - 15.8 °F 55% 30.18 in 10.0 mi Calm Calm - N/A   Clear
9:12 PM 30.2 °F - 15.8 °F 55% 30.19 in 10.0 mi Calm Calm - N/A   Clear
9:33 PM 30.2 °F - 15.8 °F 55% 30.20 in 10.0 mi Calm Calm - N/A   Clear
9:53 PM 30.2 °F - 15.8 °F 55% 30.20 in 10.0 mi Calm Calm - N/A   Clear
10:12 PM 28.4 °F - 15.8 °F 59% 30.20 in 10.0 mi Calm Calm - N/A   Clear
10:33 PM 28.4 °F - 15.8 °F 59% 30.19 in 10.0 mi Calm Calm - N/A   Clear
10:53 PM 28.4 °F - 14.0 °F 55% 30.19 in 10.0 mi Calm Calm - N/A   Clear
11:12 PM 28.4 °F - 14.0 °F 55% 30.19 in 10.0 mi Calm Calm - N/A   Clear
11:33 PM 26.6 °F 22.6 °F 12.2 °F 55% 30.19 in 10.0 mi NNE 3.5 mph - N/A   Clear
11:51 PM 26.6 °F - 12.2 °F 55% 30.20 in 10.0 mi Calm Calm - N/A   Clear